OPS 4682 DEB, 38443

Orbit data source: Space-Track

OPS 4682 DEB, 38443 is space debris in LEO originally from a launch on Sat, 03 Apr 1965 UTC launched from the Air Force Western Test Range (AFWTR). Debris objects in space refer to the collection of defunct objects orbiting the Earth. Examples of debris include non-operational satellites, rocket bodies, and fragments generated from explosions, collisions, or faulty payload assembly.

Loading next visibility...
Identifier
38443, 1965-027EY
Orbit
LEO
Country
Flag of USUS
Related business
Manufacturer
Unknown
Mission
Spacecraft
Bus & Motor
Unknown
Mass
Unknown
Launch date (UTC)
1965-04-03 (61 years ago)
Launch vehicle
Unknown
Launch site
Air Force Western Test Range (AFWTR)
Object type
Payload
Rocket body
Debris
Shape & HBR
Unknown shape, 0.1 m
Radar Cross Section
Small (<0.1 m²)

Expand to show TLE details & history
Last TLE update: 13 hours ago

TLE from 13 hours ago
0 OPS 4682 DEB
1 38443U 65027EY  26104.14129525  .00000048  00000-0  13102-3 0  9996
2 38443  90.2380   1.7049 0032141  50.6481 309.7482 13.00869151543494
Epoch: 2026-04-14T03:23Z
TLE epoch observation values (Epoch: 2026-04-14T03:23:27.909Z)
Latitude
-0.00002°
Longitude
108.51681°
Altitude
1,245.917 km
Speed
7.239 km/s
True Right ascension
00h 06m 49s
True Declination
0° 00' 00"
Sunlit
Object was in daylight at epoch
Visualization orbit readout
Latitude
Unknown
Longitude
Unknown
Altitude
Unknown
Speed
Unknown
Apparent Right ascension
Unknown
Apparent Declination
Unknown
Sunlit
N/A
Visualization observer readout
Local Sidereal Time
22:59:40
Azimuth
Unknown
Elevation
Unknown
Doppler factor
Unknown
Orbital elements
Apogee altitude
1,280.345 km
Perigee altitude
1,231.273 km
Semi-major axis
7,633.946 km
Eccentricity
0.00321
Inclination
90.238°
RAAN
1.7049°
Arg. of periapsis
50.6481°
True anomaly
309.46429°
Mean anomaly
309.7482°
Eccentric anomaly
309.60632°
Mean motion
3.25402 °/min
Orbital period
110.63 mins
BSTAR
0.00013102
Loading maneuver chart data...
Computing Atmospheric mass density...
Loading historical data...
Loading historical data...
Loading historical data...
Loading historical data...
Loading historical data...
Loading historical data...
Loading historical data...

Documentation

Showing up to 5 results
|